QPF
0.01 0.02 0.02 0.01 0.02 0.04 0.04 0.03 0.04 0.04 0.02 0.04 0.04 0.03 0.01 0.00 0.00 0.00 0.00 0.01 0.00 0.01 0.01 0.02 0.03 0.02 0.02 0.01 0.01 0.01 0.01 0.01 0.01 0.01 0.01 0.02 0.02 0.01 0.02 0.02 0.01 0.01 0.01 0.01
0.02 0.01 0.01 0.01 0.02 0.04 0.04 0.03 0.05 0.04 0.03 0.03 0.04 0.04 0.01 0.01 0.00 0.00 0.00 0.00 0.00 0.00 0.01 0.02 0.02 0.01 0.01 0.00 0.01 0.01 0.01 0.00 0.01 0.01 0.02 0.03 0.02 0.02 0.02 0.02 0.01 0.01 0.01 0.02
0.01 0.01 0.01 0.01 0.02 0.02 0.02 0.02 0.03 0.05 0.02 0.02 0.03 0.06 0.05 0.02 0.01 0.00 0.00 0.00 0.01 0.02 0.01 0.02 0.02 0.01 0.01 0.00 0.01 0.01 0.01 0.00 0.01 0.02 0.03 0.04 0.04 0.03 0.03 0.03 0.03 0.02 0.01 0.01
0.02 0.01 0.01 0.01 0.01 0.02 0.02 0.01 0.01 0.01 0.02 0.03 0.02 0.05 0.05 0.05 0.02 0.01 0.01 0.01 0.01 0.03 0.03 0.03 0.03 0.02 0.01 0.01 0.01 0.02 0.02 0.01 0.01 0.02 0.03 0.03 0.02 0.02 0.02 0.03 0.04 0.03 0.02 0.02
0.01 0.01 0.01 0.01 0.01 0.01 0.02 0.01 0.01 0.01 0.03 0.03 0.02 0.03 0.05 0.06 0.04 0.02 0.01 0.01 0.01 0.02 0.04 0.05 0.06 0.03 0.03 0.01 0.01 0.02 0.03 0.02 0.01 0.02 0.04 0.04 0.02 0.02 0.03 0.04 0.04 0.04 0.04 0.04
0.01 0.01 0.02 0.02 0.01 0.01 0.01 0.01 0.01 0.02 0.03 0.03 0.02 0.02 0.05 0.05 0.03 0.03 0.04 0.03 0.03 0.05 0.06 0.05 0.04 0.04 0.05 0.04 0.04 0.03 0.03 0.02 0.01 0.02 0.03 0.03 0.03 0.02 0.02 0.03 0.05 0.05 0.05 0.05
0.01 0.01 0.02 0.02 0.02 0.01 0.01 0.01 0.01 0.02 0.03 0.03 0.03 0.05 0.06 0.05 0.04 0.04 0.07 0.09 0.10 0.08 0.06 0.04 0.04 0.04 0.05 0.08 0.06 0.05 0.04 0.03 0.02 0.03 0.04 0.03 0.03 0.03 0.03 0.04 0.05 0.05 0.04 0.04
0.01 0.02 0.02 0.02 0.02 0.02 0.01 0.01 0.02 0.03 0.02 0.04 0.07 0.09 0.07 0.06 0.05 0.05 0.06 0.09 0.10 0.06 0.06 0.07 0.07 0.06 0.05 0.08 0.07 0.05 0.05 0.05 0.04 0.03 0.03 0.03 0.03 0.03 0.03 0.03 0.03 0.03 0.04 0.03
0.01 0.01 0.02 0.02 0.01 0.02 0.02 0.02 0.02 0.04 0.03 0.04 0.05 0.08 0.09 0.07 0.05 0.06 0.08 0.08 0.06 0.08 0.11 0.12 0.11 0.08 0.07 0.05 0.04 0.04 0.03 0.03 0.03 0.03 0.02 0.02 0.02 0.04 0.04 0.03 0.03 0.03 0.03 0.03
0.01 0.02 0.01 0.01 0.01 0.02 0.02 0.03 0.02 0.03 0.03 0.03 0.05 0.07 0.10 0.09 0.13 0.11 0.09 0.08 0.07 0.10 0.17 0.21 0.23 0.22 0.12 0.05 0.04 0.04 0.03 0.03 0.03 0.03 0.03 0.03 0.03 0.03 0.03 0.02 0.02 0.03 0.02 0.02
0.01 0.02 0.02 0.01 0.01 0.02 0.02 0.03 0.02 0.02 0.03 0.03 0.06 0.06 0.08 0.10 0.07 0.08 0.08 0.08 0.07 0.13 0.21 0.26 0.23 0.19 0.09 0.05 0.04 0.03 0.02 0.03 0.04 0.05 0.06 0.05 0.03 0.02 0.02 0.03 0.03 0.02 0.02 0.02
0.01 0.01 0.02 0.01 0.01 0.02 0.01 0.01 0.01 0.02 0.02 0.04 0.05 0.05 0.09 0.11 0.06 0.05 0.06 0.09 0.11 0.10 0.12 0.13 0.08 0.09 0.07 0.05 0.04 0.03 0.03 0.02 0.03 0.03 0.03 0.03 0.03 0.02 0.02 0.02 0.03 0.02 0.02 0.02
0.01 0.01 0.01 0.02 0.02 0.02 0.01 0.01 0.01 0.01 0.01 0.02 0.05 0.06 0.09 0.07 0.05 0.05 0.09 0.10 0.11 0.10 0.08 0.07 0.08 0.08 0.06 0.04 0.03 0.04 0.04 0.02 0.03 0.09 0.10 0.08 0.05 0.04 0.04 0.05 0.05 0.03 0.02 0.02
0.00 0.01 0.01 0.02 0.01 0.01 0.01 0.01 0.01 0.01 0.01 0.02 0.03 0.05 0.07 0.06 0.06 0.06 0.06 0.05 0.09 0.12 0.10 0.08 0.07 0.09 0.07 0.04 0.05 0.04 0.03 0.03 0.03 0.04 0.06 0.07 0.06 0.04 0.05 0.05 0.03 0.02 0.02 0.02
0.00 0.00 0.00 0.01 0.02 0.01 0.01 0.01 0.01 0.01 0.02 0.03 0.05 0.06 0.07 0.07 0.06 0.05 0.05 0.04 0.04 0.05 0.07 0.07 0.06 0.04 0.03 0.03 0.04 0.03 0.04 0.05 0.07 0.08 0.06 0.05 0.06 0.05 0.03 0.03 0.02 0.02 0.02 0.02
0.00 0.00 0.01 0.01 0.01 0.01 0.01 0.01 0.02 0.03 0.03 0.03 0.04 0.07 0.10 0.13 0.10 0.08 0.06 0.05 0.04 0.03 0.03 0.03 0.02 0.01 0.01 0.01 0.02 0.02 0.04 0.06 0.09 0.09 0.08 0.07 0.08 0.08 0.06 0.05 0.04 0.03 0.02 0.01
0.00 0.00 0.00 0.01 0.01 0.01 0.02 0.02 0.02 0.02 0.03 0.04 0.06 0.06 0.03 0.05 0.07 0.07 0.06 0.05 0.03 0.05 0.06 0.04 0.03 0.02 0.03 0.03 0.02 0.02 0.02 0.04 0.07 0.09 0.09 0.09 0.09 0.08 0.06 0.06 0.05 0.03 0.03 0.03
0.00 0.01 0.01 0.01 0.02 0.02 0.02 0.03 0.04 0.05 0.08 0.05 0.03 0.04 0.03 0.03 0.03 0.05 0.05 0.04 0.03 0.04 0.06 0.05 0.05 0.05 0.06 0.06 0.04 0.03 0.03 0.04 0.07 0.09 0.09 0.09 0.08 0.08 0.07 0.05 0.04 0.03 0.03 0.03
0.00 0.01 0.01 0.01 0.03 0.04 0.04 0.03 0.03 0.02 0.06 0.07 0.04 0.03 0.03 0.02 0.03 0.05 0.03 0.03 0.02 0.03 0.05 0.06 0.07 0.08 0.07 0.05 0.03 0.01 0.02 0.02 0.03 0.05 0.08 0.10 0.10 0.06 0.05 0.04 0.04 0.03 0.03 0.03
0.00 0.00 0.01 0.01 0.02 0.04 0.03 0.03 0.03 0.03 0.04 0.07 0.06 0.04 0.03 0.02 0.03 0.04 0.05 0.03 0.04 0.07 0.09 0.10 0.07 0.06 0.05 0.04 0.04 0.03 0.02 0.01 0.02 0.03 0.05 0.08 0.09 0.06 0.03 0.04 0.05 0.05 0.04 0.03
0.01 0.01 0.01 0.01 0.02 0.03 0.03 0.03 0.02 0.03 0.04 0.06 0.05 0.04 0.03 0.05 0.03 0.02 0.06 0.05 0.05 0.09 0.07 0.06 0.07 0.07 0.06 0.06 0.07 0.06 0.03 0.02 0.02 0.02 0.03 0.05 0.09 0.10 0.08 0.08 0.09 0.08 0.05 0.06
0.02 0.02 0.02 0.02 0.03 0.03 0.01 0.01 0.01 0.02 0.02 0.02 0.03 0.03 0.03 0.05 0.04 0.03 0.07 0.10 0.04 0.05 0.07 0.04 0.04 0.07 0.08 0.06 0.06 0.05 0.03 0.02 0.01 0.02 0.03 0.05 0.08 0.14 0.16 0.16 0.12 0.09 0.07 0.07
0.02 0.02 0.02 0.03 0.03 0.02 0.02 0.01 0.01 0.01 0.01 0.02 0.02 0.02 0.03 0.04 0.04 0.04 0.05 0.06 0.03 0.03 0.05 0.03 0.02 0.03 0.04 0.04 0.05 0.04 0.03 0.02 0.02 0.02 0.03 0.04 0.06 0.08 0.10 0.12 0.11 0.10 0.09 0.08
0.02 0.02 0.02 0.03 0.03 0.03 0.01 0.01 0.02 0.02 0.02 0.01 0.01 0.02 0.02 0.02 0.03 0.03 0.03 0.03 0.02 0.02 0.02 0.02 0.02 0.03 0.04 0.04 0.03 0.03 0.03 0.03 0.03 0.04 0.04 0.04 0.03 0.04 0.05 0.06 0.06 0.06 0.06 0.05
0.02 0.03 0.04 0.07 0.06 0.04 0.03 0.02 0.02 0.03 0.04 0.01 0.01 0.01 0.00 0.01 0.04 0.04 0.02 0.02 0.02 0.02 0.02 0.03 0.03 0.03 0.04 0.05 0.05 0.05 0.05 0.05 0.05 0.04 0.03 0.03 0.03 0.02 0.02 0.02 0.02 0.03 0.03 0.03
0.06 0.05 0.05 0.08 0.09 0.08 0.06 0.04 0.03 0.02 0.02 0.01 0.01 0.01 0.01 0.03 0.04 0.03 0.02 0.01 0.01 0.02 0.03 0.04 0.04 0.04 0.03 0.04 0.05 0.05 0.06 0.06 0.06 0.05 0.03 0.02 0.02 0.02 0.02 0.01 0.02 0.02 0.01 0.02
MSLP
1008.51 1009.39 1010.13 1010.71 1011.14 1011.45 1011.68 1011.84 1011.97 1012.06 1012.12 1012.12 1012.07 1011.99 1011.89 1011.84 1011.85 1011.96 1012.19 1012.52 1012.92 1013.35 1013.75 1014.08 1014.33 1014.48 1014.57 1014.65 1014.74 1014.89 1015.12 1015.41 1015.72 1016.01 1016.23 1016.32 1016.28 1016.10 1015.83 1015.53 1015.25 1015.05 1014.99 1015.07
1008.82 1009.47 1009.97 1010.35 1010.64 1010.90 1011.17 1011.45 1011.74 1011.98 1012.14 1012.19 1012.12 1011.93 1011.68 1011.45 1011.29 1011.28 1011.44 1011.76 1012.21 1012.73 1013.23 1013.66 1013.96 1014.14 1014.24 1014.29 1014.36 1014.50 1014.74 1015.08 1015.47 1015.86 1016.17 1016.35 1016.36 1016.20 1015.91 1015.55 1015.21 1014.95 1014.84 1014.89
1008.81 1009.22 1009.47 1009.64 1009.81 1010.05 1010.38 1010.81 1011.28 1011.71 1012.03 1012.16 1012.09 1011.82 1011.43 1011.01 1010.67 1010.51 1010.56 1010.85 1011.33 1011.92 1012.52 1013.05 1013.44 1013.69 1013.81 1013.87 1013.93 1014.07 1014.33 1014.71 1015.17 1015.64 1016.04 1016.31 1016.39 1016.28 1016.00 1015.62 1015.24 1014.94 1014.77 1014.78
1008.51 1008.68 1008.72 1008.72 1008.81 1009.06 1009.50 1010.11 1010.80 1011.46 1011.95 1012.19 1012.13 1011.79 1011.24 1010.62 1010.07 1009.71 1009.62 1009.82 1010.28 1010.91 1011.61 1012.24 1012.75 1013.09 1013.27 1013.37 1013.45 1013.60 1013.87 1014.27 1014.77 1015.31 1015.79 1016.15 1016.31 1016.27 1016.04 1015.68 1015.30 1014.96 1014.75 1014.71
1008.02 1007.99 1007.85 1007.75 1007.81 1008.13 1008.73 1009.56 1010.49 1011.38 1012.06 1012.40 1012.35 1011.92 1011.20 1010.35 1009.55 1008.94 1008.66 1008.72 1009.12 1009.76 1010.52 1011.26 1011.89 1012.34 1012.62 1012.79 1012.91 1013.07 1013.34 1013.75 1014.27 1014.84 1015.39 1015.82 1016.08 1016.12 1015.96 1015.66 1015.30 1014.96 1014.72 1014.63
1007.44 1007.25 1007.00 1006.86 1006.96 1007.41 1008.20 1009.26 1010.45 1011.56 1012.41 1012.84 1012.78 1012.24 1011.34 1010.24 1009.15 1008.27 1007.74 1007.63 1007.92 1008.53 1009.32 1010.15 1010.90 1011.48 1011.87 1012.12 1012.29 1012.47 1012.74 1013.14 1013.65 1014.24 1014.82 1015.31 1015.65 1015.78 1015.72 1015.49 1015.18 1014.87 1014.62 1014.49
1006.89 1006.58 1006.29 1006.16 1006.36 1006.96 1007.95 1009.25 1010.66 1011.97 1012.95 1013.45 1013.36 1012.71 1011.61 1010.26 1008.89 1007.72 1006.93 1006.61 1006.75 1007.29 1008.09 1008.99 1009.84 1010.54 1011.05 1011.39 1011.62 1011.83 1012.09 1012.46 1012.94 1013.51 1014.10 1014.63 1015.03 1015.25 1015.28 1015.15 1014.92 1014.64 1014.41 1014.26
1006.40 1006.03 1005.73 1005.67 1005.99 1006.74 1007.92 1009.41 1011.00 1012.45 1013.53 1014.05 1013.93 1013.18 1011.91 1010.34 1008.72 1007.29 1006.26 1005.72 1005.71 1006.16 1006.93 1007.86 1008.78 1009.58 1010.20 1010.63 1010.93 1011.16 1011.41 1011.74 1012.18 1012.70 1013.27 1013.81 1014.26 1014.55 1014.68 1014.65 1014.50 1014.29 1014.08 1013.93
1006.00 1005.60 1005.33 1005.34 1005.76 1006.65 1007.96 1009.57 1011.27 1012.79 1013.91 1014.44 1014.29 1013.46 1012.08 1010.36 1008.57 1006.95 1005.72 1005.01 1004.85 1005.19 1005.90 1006.83 1007.79 1008.66 1009.37 1009.88 1010.23 1010.48 1010.73 1011.02 1011.41 1011.88 1012.41 1012.94 1013.40 1013.75 1013.96 1014.02 1013.96 1013.82 1013.66 1013.52
1005.65 1005.25 1005.01 1005.09 1005.59 1006.54 1007.90 1009.53 1011.23 1012.75 1013.86 1014.38 1014.21 1013.37 1011.97 1010.20 1008.34 1006.64 1005.30 1004.47 1004.19 1004.42 1005.06 1005.94 1006.91 1007.81 1008.57 1009.13 1009.54 1009.82 1010.07 1010.33 1010.67 1011.09 1011.57 1012.07 1012.54 1012.92 1013.18 1013.32 1013.34 1013.27 1013.16 1013.05
1005.32 1004.94 1004.74 1004.85 1005.35 1006.28 1007.58 1009.13 1010.73 1012.16 1013.20 1013.69 1013.54 1012.75 1011.42 1009.74 1007.95 1006.29 1004.95 1004.07 1003.71 1003.85 1004.40 1005.21 1006.13 1007.02 1007.79 1008.39 1008.83 1009.15 1009.41 1009.67 1009.98 1010.36 1010.80 1011.26 1011.71 1012.11 1012.40 1012.60 1012.68 1012.68 1012.63 1012.56
1005.01 1004.66 1004.48 1004.58 1005.03 1005.84 1006.97 1008.32 1009.72 1010.98 1011.90 1012.35 1012.24 1011.56 1010.41 1008.93 1007.33 1005.82 1004.58 1003.74 1003.36 1003.42 1003.86 1004.57 1005.40 1006.23 1006.98 1007.59 1008.07 1008.43 1008.72 1009.00 1009.31 1009.67 1010.08 1010.51 1010.94 1011.33 1011.65 1011.87 1012.01 1012.06 1012.07 1012.04
1004.76 1004.44 1004.27 1004.32 1004.64 1005.25 1006.13 1007.18 1008.29 1009.30 1010.06 1010.44 1010.38 1009.87 1008.96 1007.76 1006.46 1005.20 1004.14 1003.40 1003.03 1003.03 1003.37 1003.94 1004.64 1005.38 1006.07 1006.68 1007.18 1007.59 1007.94 1008.26 1008.60 1008.97 1009.37 1009.79 1010.20 1010.58 1010.89 1011.14 1011.31 1011.41 1011.46 1011.48
1004.62 1004.35 1004.17 1004.13 1004.28 1004.63 1005.18 1005.86 1006.61 1007.31 1007.86 1008.16 1008.14 1007.81 1007.17 1006.31 1005.35 1004.40 1003.58 1002.97 1002.64 1002.59 1002.81 1003.23 1003.78 1004.40 1005.01 1005.59 1006.11 1006.58 1007.00 1007.40 1007.80 1008.21 1008.63 1009.04 1009.44 1009.81 1010.12 1010.37 1010.56 1010.70 1010.79 1010.86
1004.65 1004.43 1004.24 1004.10 1004.04 1004.10 1004.27 1004.55 1004.90 1005.25 1005.56 1005.74 1005.75 1005.57 1005.21 1004.69 1004.07 1003.44 1002.86 1002.41 1002.13 1002.03 1002.13 1002.39 1002.78 1003.25 1003.78 1004.32 1004.86 1005.38 1005.89 1006.39 1006.87 1007.35 1007.80 1008.23 1008.63 1008.99 1009.29 1009.55 1009.75 1009.92 1010.05 1010.17
1004.89 1004.71 1004.49 1004.24 1003.98 1003.74 1003.54 1003.40 1003.34 1003.34 1003.38 1003.42 1003.42 1003.37 1003.23 1003.00 1002.70 1002.36 1002.02 1001.70 1001.46 1001.32 1001.30 1001.40 1001.63 1001.97 1002.40 1002.90 1003.46 1004.04 1004.65 1005.25 1005.83 1006.38 1006.89 1007.35 1007.76 1008.11 1008.41 1008.67 1008.90 1009.09 1009.27 1009.43
1005.30 1005.15 1004.90 1004.54 1004.09 1003.56 1003.02 1002.50 1002.05 1001.71 1001.48 1001.36 1001.33 1001.34 1001.37 1001.37 1001.33 1001.23 1001.07 1000.87 1000.67 1000.48 1000.36 1000.33 1000.41 1000.62 1000.97 1001.44 1002.01 1002.66 1003.35 1004.05 1004.73 1005.37 1005.94 1006.43 1006.86 1007.22 1007.52 1007.79 1008.03 1008.26 1008.48 1008.70
1005.78 1005.63 1005.34 1004.88 1004.25 1003.49 1002.65 1001.81 1001.04 1000.40 999.93 999.65 999.55 999.59 999.72 999.89 1000.03 1000.11 1000.10 999.99 999.81 999.60 999.40 999.26 999.24 999.36 999.64 1000.08 1000.67 1001.38 1002.15 1002.94 1003.70 1004.41 1005.04 1005.57 1006.02 1006.39 1006.70 1006.98 1007.25 1007.52 1007.79 1008.06
1006.20 1006.01 1005.65 1005.09 1004.32 1003.38 1002.32 1001.24 1000.22 999.34 998.68 998.27 998.09 998.12 998.31 998.58 998.85 999.06 999.16 999.13 999.00 998.78 998.54 998.35 998.26 998.33 998.58 999.01 999.62 1000.36 1001.19 1002.05 1002.88 1003.64 1004.31 1004.87 1005.33 1005.72 1006.04 1006.34 1006.64 1006.95 1007.27 1007.61
1006.42 1006.14 1005.69 1005.03 1004.14 1003.06 1001.86 1000.61 999.43 998.41 997.62 997.10 996.87 996.89 997.11 997.45 997.81 998.12 998.32 998.38 998.31 998.13 997.91 997.72 997.62 997.67 997.92 998.36 998.98 999.75 1000.61 1001.50 1002.37 1003.16 1003.84 1004.42 1004.89 1005.29 1005.63 1005.95 1006.27 1006.62 1006.99 1007.38
1006.36 1005.95 1005.38 1004.60 1003.62 1002.45 1001.16 999.83 998.57 997.47 996.62 996.06 995.80 995.83 996.07 996.47 996.91 997.31 997.62 997.79 997.81 997.72 997.58 997.44 997.39 997.47 997.74 998.19 998.83 999.60 1000.47 1001.37 1002.23 1003.02 1003.70 1004.28 1004.75 1005.14 1005.49 1005.83 1006.18 1006.55 1006.97 1007.41
1006.01 1005.43 1004.72 1003.83 1002.76 1001.53 1000.20 998.85 997.58 996.47 995.62 995.06 994.81 994.86 995.15 995.61 996.14 996.65 997.08 997.38 997.54 997.59 997.57 997.54 997.57 997.72 998.03 998.51 999.15 999.91 1000.76 1001.63 1002.46 1003.22 1003.88 1004.43 1004.88 1005.27 1005.62 1005.96 1006.33 1006.73 1007.16 1007.63
1005.45 1004.69 1003.82 1002.81 1001.66 1000.39 999.06 997.73 996.48 995.42 994.60 994.08 993.88 993.98 994.33 994.86 995.49 996.12 996.69 997.15 997.49 997.71 997.85 997.97 998.12 998.35 998.71 999.21 999.84 1000.58 1001.38 1002.19 1002.97 1003.68 1004.29 1004.81 1005.24 1005.61 1005.95 1006.29 1006.65 1007.06 1007.50 1007.97
1004.79 1003.85 1002.83 1001.71 1000.50 999.21 997.88 996.58 995.40 994.40 993.64 993.18 993.04 993.20 993.62 994.23 994.96 995.73 996.45 997.09 997.62 998.03 998.35 998.63 998.91 999.23 999.65 1000.16 1000.77 1001.46 1002.20 1002.94 1003.64 1004.28 1004.84 1005.32 1005.71 1006.06 1006.38 1006.71 1007.06 1007.44 1007.87 1008.32
1004.16 1003.08 1001.94 1000.73 999.47 998.16 996.85 995.60 994.47 993.53 992.85 992.45 992.36 992.57 993.06 993.76 994.59 995.48 996.35 997.16 997.87 998.47 998.97 999.40 999.80 1000.21 1000.67 1001.18 1001.76 1002.39 1003.05 1003.71 1004.34 1004.91 1005.41 1005.84 1006.21 1006.53 1006.82 1007.13 1007.45 1007.80 1008.19 1008.61
1003.62 1002.46 1001.26 1000.00 998.72 997.42 996.14 994.93 993.86 992.97 992.34 991.98 991.93 992.19 992.72 993.48 994.39 995.38 996.38 997.34 998.21 998.97 999.62 1000.18 1000.68 1001.16 1001.63 1002.13 1002.67 1003.23 1003.81 1004.39 1004.94 1005.45 1005.90 1006.29 1006.63 1006.93 1007.20 1007.48 1007.77 1008.08 1008.41 1008.77
Thickness
5830 5811 5800 5809 5816 5814 5811 5804 5800 5813 5834 5825 5817 5820 5831 5840 5838 5834 5833 5834 5832 5832 5834 5834 5832 5829 5824 5820 5816 5812 5808 5805 5803 5798 5794 5790 5787 5787 5787 5786 5785 5783 5782 5781
5808 5803 5821 5830 5829 5821 5813 5803 5802 5815 5833 5826 5815 5818 5832 5838 5838 5839 5837 5835 5834 5831 5830 5830 5829 5827 5823 5819 5816 5812 5809 5805 5803 5800 5796 5793 5789 5787 5786 5785 5784 5783 5782 5781
5799 5815 5834 5828 5821 5814 5811 5806 5807 5809 5823 5826 5814 5806 5819 5832 5840 5841 5842 5841 5838 5833 5830 5828 5826 5824 5822 5819 5817 5814 5810 5806 5803 5800 5796 5792 5788 5785 5783 5782 5781 5782 5781 5780
5808 5825 5828 5822 5819 5818 5804 5827 5827 5820 5806 5795 5805 5777 5805 5821 5827 5833 5836 5837 5838 5837 5834 5829 5827 5824 5823 5822 5820 5815 5810 5807 5804 5800 5795 5789 5783 5780 5780 5780 5780 5780 5780 5779
5806 5822 5820 5815 5823 5828 5820 5836 5828 5820 5804 5791 5797 5782 5793 5814 5815 5825 5832 5836 5839 5840 5837 5832 5829 5827 5825 5823 5820 5815 5810 5806 5804 5801 5796 5790 5785 5783 5782 5781 5779 5778 5778 5777
5815 5831 5829 5828 5837 5839 5836 5827 5817 5804 5789 5771 5787 5782 5783 5804 5818 5825 5832 5837 5838 5838 5837 5833 5830 5827 5823 5822 5818 5814 5809 5805 5803 5800 5796 5790 5786 5782 5779 5777 5776 5775 5774 5774
5800 5815 5831 5838 5823 5829 5824 5794 5768 5765 5755 5762 5788 5783 5787 5818 5833 5834 5834 5835 5837 5836 5832 5828 5824 5821 5820 5818 5816 5812 5807 5803 5801 5798 5794 5791 5788 5784 5780 5777 5775 5773 5771 5771
5777 5783 5817 5830 5822 5812 5811 5795 5763 5751 5749 5761 5780 5777 5799 5828 5838 5840 5839 5837 5834 5830 5830 5828 5826 5822 5818 5817 5814 5811 5806 5802 5799 5796 5793 5791 5788 5784 5780 5778 5776 5774 5772 5771
5777 5784 5822 5834 5838 5826 5807 5795 5794 5771 5765 5756 5765 5783 5803 5823 5828 5830 5830 5829 5827 5827 5827 5826 5825 5822 5818 5815 5813 5811 5806 5801 5798 5795 5793 5790 5787 5784 5781 5779 5777 5775 5773 5772
5796 5785 5807 5827 5832 5828 5819 5807 5783 5766 5750 5744 5758 5769 5776 5799 5810 5818 5821 5822 5824 5825 5824 5824 5823 5820 5817 5816 5813 5811 5806 5802 5798 5795 5792 5790 5786 5784 5782 5779 5776 5774 5773 5771
5802 5782 5792 5805 5804 5802 5805 5799 5785 5766 5761 5744 5741 5760 5805 5806 5812 5814 5817 5821 5821 5822 5821 5821 5822 5821 5817 5814 5810 5807 5804 5800 5796 5793 5791 5788 5785 5783 5780 5777 5775 5773 5772 5770
5802 5781 5771 5789 5814 5823 5812 5801 5786 5765 5759 5754 5748 5765 5817 5815 5816 5816 5816 5818 5819 5819 5819 5819 5818 5815 5812 5811 5808 5804 5801 5798 5795 5792 5789 5785 5783 5780 5777 5775 5773 5771 5769 5767
5799 5774 5755 5764 5784 5803 5802 5803 5795 5781 5765 5753 5747 5767 5811 5812 5813 5816 5815 5816 5816 5815 5814 5813 5812 5809 5807 5807 5804 5801 5799 5796 5793 5790 5785 5781 5778 5776 5773 5772 5771 5769 5766 5764
5808 5774 5762 5756 5768 5787 5791 5798 5799 5781 5759 5756 5763 5774 5794 5801 5805 5809 5812 5813 5812 5810 5808 5806 5804 5804 5804 5804 5801 5798 5795 5794 5791 5787 5783 5778 5774 5772 5771 5769 5767 5765 5763 5760
5796 5773 5777 5781 5792 5796 5794 5795 5796 5786 5779 5769 5773 5777 5789 5798 5803 5806 5809 5809 5806 5804 5803 5803 5802 5802 5802 5800 5798 5796 5793 5791 5788 5783 5779 5774 5772 5769 5767 5764 5763 5761 5759 5757
5779 5771 5774 5774 5788 5790 5787 5791 5793 5792 5790 5783 5782 5781 5798 5801 5802 5802 5803 5804 5802 5801 5802 5802 5801 5799 5797 5796 5794 5791 5789 5787 5784 5779 5774 5771 5768 5765 5762 5760 5758 5756 5753 5751
5763 5761 5754 5751 5770 5773 5762 5781 5785 5785 5791 5787 5776 5785 5796 5793 5794 5795 5797 5798 5797 5797 5798 5797 5797 5796 5794 5792 5790 5787 5785 5782 5778 5774 5770 5767 5764 5761 5759 5757 5754 5751 5748 5746
5758 5750 5742 5741 5750 5735 5762 5791 5794 5787 5788 5791 5791 5792 5796 5795 5796 5797 5798 5795 5794 5794 5792 5792 5793 5793 5792 5790 5787 5785 5781 5777 5772 5769 5766 5763 5761 5758 5756 5753 5749 5747 5744 5741
5763 5749 5734 5727 5726 5736 5764 5783 5787 5779 5772 5787 5786 5788 5791 5793 5788 5786 5794 5795 5793 5791 5789 5789 5791 5790 5788 5785 5782 5778 5774 5770 5766 5763 5761 5760 5757 5754 5751 5748 5745 5743 5740 5737
5755 5749 5733 5723 5721 5720 5751 5783 5795 5781 5758 5782 5785 5783 5784 5782 5764 5770 5788 5790 5789 5787 5786 5784 5785 5784 5781 5779 5776 5771 5766 5763 5760 5758 5757 5755 5753 5751 5747 5745 5742 5739 5736 5732
5728 5726 5722 5717 5717 5729 5761 5781 5783 5748 5750 5778 5782 5781 5779 5773 5773 5779 5785 5784 5783 5781 5780 5780 5778 5775 5773 5772 5769 5763 5760 5757 5758 5756 5753 5750 5748 5746 5743 5740 5737 5733 5730 5726
5714 5711 5711 5711 5709 5720 5763 5768 5758 5756 5770 5775 5778 5777 5775 5774 5775 5777 5778 5776 5774 5773 5773 5772 5768 5766 5766 5765 5762 5757 5754 5754 5752 5750 5746 5744 5741 5740 5737 5733 5730 5727 5723 5719
5713 5717 5715 5717 5721 5742 5757 5759 5764 5767 5765 5768 5770 5773 5772 5769 5766 5768 5767 5766 5766 5765 5764 5763 5761 5758 5757 5756 5754 5750 5748 5747 5745 5742 5739 5737 5735 5732 5729 5725 5722 5718 5715 5711
5712 5723 5717 5716 5726 5739 5748 5753 5758 5761 5760 5763 5765 5767 5764 5760 5760 5760 5759 5758 5756 5755 5754 5753 5750 5747 5745 5746 5745 5744 5741 5739 5736 5733 5731 5728 5726 5722 5720 5717 5714 5710 5706 5703
5702 5710 5707 5707 5718 5728 5736 5741 5746 5750 5754 5756 5757 5758 5757 5755 5752 5751 5749 5749 5748 5746 5745 5744 5740 5737 5736 5736 5735 5735 5733 5730 5726 5724 5721 5719 5717 5713 5710 5707 5704 5702 5700 5698
5694 5698 5696 5697 5711 5713 5719 5732 5740 5741 5743 5745 5746 5745 5746 5746 5744 5742 5741 5740 5739 5737 5735 5732 5731 5729 5727 5726 5725 5725 5724 5722 5718 5715 5713 5710 5708 5705 5702 5699 5695 5694 5693 5691